Preview of NWS' New Version of Forecast
This preview is not operational and should not be used for support decisions.

Regional Weather Roundup (RWR)

Issued by National Weather Service (NWS)

                            
000
ASUS43 KLSX 211707
RWRMO 

WEATHER SUMMARY FOR MISSOURI
NATIONAL WEATHER SERVICE SPRINGFIELD MO
1200 PM CDT SAT SEP 21 2019

NOTE: "FAIR" INDICATES FEW OR NO CLOUDS BELOW 12,000 FEET WITH NO
       SIGNIFICANT WEATHER AND/OR OBSTRUCTIONS TO VISIBILITY.
       CURRENT SKY AND/OR WEATHER CONDITIONS ARE NOT AVAILABLE FOR
       CHILLICOTHE AND FARMINGTON.

MOZ001>031-035>038-043-044-053-054-211800-
...NORTHERN AND WESTERN MISSOURI...
  
CITY           SKY/WX    TMP DP  RH WIND       PRES   REMARKS
KANSAS CTY INT LGT RAIN  75  73  93 S13G24    29.97S                  
KANSAS C DTWN  CLOUDY    79  70  74 S23G32    29.97R                  
LEE'S SUMMIT   CLOUDY    77  70  79 S20G30    30.00R                  
ST JOSEPH      CLOUDY    75  72  90 S14G22    29.92F                  
CHILLICOTHE      N/A     76  72  87 S7G22     29.99S                  
KIRKSVILLE     CLOUDY    78  70  76 S12G22    30.01F                  
     
$$
MOZ066>068-077>081-088>096-101>105-211800-
...SOUTHWEST MISSOURI...
  
CITY           SKY/WX    TMP DP  RH WIND       PRES   REMARKS
SPRINGFIELD    PTSUNNY   81  67  62 S21G32    30.10F                  
JOPLIN         LGT RAIN  77  69  76 SW18G26   30.09R                  
BRANSON        MOSUNNY   77  66  69 S9        30.16S                  
               
$$
MOZ032>034-039>042-045>050-055>058-069>072-211800-
...CENTRAL MISSOURI...  
  
CITY           SKY/WX    TMP DP  RH WIND       PRES   REMARKS
COLUMBIA       CLOUDY    80  69  69 S14G21    30.06F                  
JEFFERSON CITY CLOUDY    83  69  62 SW13G20   30.06F                  
ROLLA          PTSUNNY   83  68  60 S13G26    30.11F                  
SEDALIA        CLOUDY    77  70  79 S22G31    30.04F                  
WHITEMAN AFB   PTSUNNY   77  72  84 S17G30    29.99R                  
WARRENSBURG    CLOUDY    77  68  73 S17G24    30.02R                  
OSAGE BEACH    CLOUDY    80  69  69 SW13      30.09F                  
               
$$
MOZ051-052-059>065-211800-
...EAST CENTRAL MISSOURI...
  
CITY           SKY/WX    TMP DP  RH WIND       PRES   REMARKS
ST LOUIS INTL  LGT RAIN  75  67  76 S13G22    30.12F                  
SPIRIT OF STL  CLOUDY    77  69  76 S8        30.10F                  
ST CHARLES       N/A    N/A N/A N/A MISG      30.10S                  
                   
$$
MOZ072>076-082>087-097>100-106>115-211800-
...SOUTH CENTRAL AND SOUTHEAST MISSOURI...
  
CITY           SKY/WX    TMP DP  RH WIND       PRES   REMARKS
CAPE GIRARDEAU FAIR      84  65  52 S12G20    30.18F                  
FARMINGTON     MOSUNNY   76  67  73 S13       30.17F                  
POPLAR BLUFF   PTSUNNY   80  67  64 SW10      30.18F                  
WEST PLAINS    PTSUNNY   80  69  69 S14G21    30.17F                  
                                       
$$